Regional Weather Roundup
Issued by NWS

Home | Current Version | Previous Version | Text Only | Print | Product List | Glossary On
Versions: 1 2 3 4 5 6 7 8 9 10 11 12 13 14 15 16 17 18 19 20 21 22 23 24 25 26 27 28 29 30 31 32 33 34 35 36 37 38 39 40 41 42 43 44 45 46 47 48 49 50
000
ASUS43 KLOT 290009
RWRIL

ILLINOIS REGIONAL WEATHER ROUNDUP
NATIONAL WEATHER SERVICE CHICAGO/ROMEOVILLE IL
700 PM CDT SUN MAY 28 2017

NOTE: "FAIR" INDICATES FEW OR NO CLOUDS BELOW 12,000 FEET WITH NO
SIGNIFICANT WEATHER AND/OR OBSTRUCTIONS TO VISIBILITY.

* THESE STATIONS ARE NOT UNDER NWS QUALITY CONTROL. THEY ALSO MAY NOT
  REPORT WEATHER SUCH AS PRECIPITATION OR FOG.

ILZ001-002-007-009-015-016-024-290100-
NORTHWEST ILLINOIS

CITY           SKY/WX    TMP DP  RH WIND       PRES   REMARKS
MOLINE         SUNNY     76  48  37 W12       29.78S
6HR MIN TEMP:  75; 6HR MAX TEMP:  80;

STERLING*      SUNNY     74  48  39 W16       29.77R
SAVANNA*       MOSUNNY   74  46  37 W5        29.76S
$$

ILZ003-004-008-010-011-017-018-290100-
NORTH CENTRAL ILLINOIS

CITY           SKY/WX    TMP DP  RH WIND       PRES   REMARKS
ROCKFORD       MOSUNNY   74  48  39 W14       29.76R
6HR MIN TEMP:  70; 6HR MAX TEMP:  77;

FREEPORT*      SUNNY     71  45  38 W13       29.77S
ROCHELLE*      MOSUNNY   73  49  41 W16G22    29.77R
DE KALB*       SUNNY     73  49  43 W20       29.76R
PERU*          SUNNY     73  46  37 W16       29.78R
$$

ILZ005-006-012>014-019>023-290100-
NORTHEAST ILLINOIS

CITY           SKY/WX    TMP DP  RH WIND       PRES   REMARKS
CHICAGO-OHARE  PTSUNNY   74  51  44 W10G21    29.73S
6HR MIN TEMP:  72; 6HR MAX TEMP:  77;

CHICAGO-MIDWAY PTSUNNY   75  52  44 W9        29.74R
6HR MIN TEMP:  67; 6HR MAX TEMP:  77; 6HR PCP:  0.01;

AURORA         MOSUNNY   75  52  44 W20G25    29.75S
6HR MIN TEMP:  71; 6HR MAX TEMP:  77;

LANSING*       SUNNY     73  54  50 W12G17    29.75R
JOLIET*        PTSUNNY   76  53  44 W7        29.76R
WAUKEGAN       PTSUNNY   72  54  53 SW8       29.71S
6HR MIN TEMP:  66; 6HR MAX TEMP:  75;

DUPAGE AIRPORT MOSUNNY   73  55  53 W13G24    29.74R
6HR MIN TEMP:  69; 6HR MAX TEMP:  75;

KANKAKEE*      SUNNY     77  50  38 W12       29.77R
WHEELING       MOSUNNY   74  54  49 W9        29.74S
6HR MIN TEMP:  68; 6HR MAX TEMP:  76;

MORRIS*        MOSUNNY   75  53  46 W14       29.75R
ROMEOVILLE*    CLOUDY    74  56  53 W16       29.75S
NORTHERLY ISL    N/A     59  55  87 SE6         N/A
$$

LMZ740>746-290100-
SOUTHERN LAKE MICHIGAN

STATION/POSITION SKY/WX   TEMP    WIND        PRES    VSBY  WAVE
                          AIR SEA DIR/SP/G                  HT/PER
                          (F)     (DEG/KT/KT) (MB)    (MI)  (FT/S)
SOUTHERN BUOY              51 51  190/  4/  4 1006.6          0
WILMETTE HARBOR            55 55  150/  8/ 10   N/A           1
HARRISON CRIB              58     180/  8/  9   N/A
BURNHAM HARBOR             59     150/  4/  6   N/A
CALUMET HARBOR             62      30/  4/  5 1006.9R
BURNS HARBOR               60      20/  3/  3 1007.8F
MICHIGAN CITY              57     220/  3/  3   N/A
MICHIGAN CITY 6N           58 57  230/  4/  4   N/A           1
ST. JOSEPH                 60 61  240/  4/  4 1007.3          1
$$

ILZ025>027-034>036-040-047-049-050-058-095>099-290100-
WEST-CENTRAL ILLINOIS

CITY           SKY/WX    TMP DP  RH WIND       PRES   REMARKS
QUINCY         SUNNY     76  55  48 NW10      29.84R
GALESBURG*     MOSUNNY   75  46  35 W9        29.81R
MACOMB*        SUNNY     76  43  30 NW15G21   29.84S
JACKSONVILLE*  PTSUNNY   76  51  41 W8        29.83S
PITTSFIELD*    MOSUNNY   76  55  47 SW8       29.85S
$$

ILZ028>032-037-038-041>044-048-051>054-059>061-290100-
CENTRAL ILLINOIS

CITY           SKY/WX    TMP DP  RH WIND       PRES   REMARKS
PONTIAC        PTSUNNY   75  54  46 W13       29.78S
BLOOMINGTON    SUNNY     76  51  41 W18G26    29.81S
DECATUR        MOSUNNY   76  49  38 W14       29.82R
PEORIA         MOSUNNY   77  51  40 NW12G20   29.80R
6HR MIN TEMP:  75; 6HR MAX TEMP:  79;

LACON*         MOSUNNY   76  52  43 NW14      29.78R
LINCOLN*       SUNNY     78  53  41 W6        29.80S
SPRINGFIELD    MOSUNNY   80  52  37 W13       29.82S HX  80
6HR MIN TEMP:  76; 6HR MAX TEMP:  83; 6HR PCP: TRACE;

TAYLORVILLE    SUNNY     77  50  38 W13       29.83S
6HR MIN TEMP:  73; 6HR MAX TEMP:  79;

$$

ILZ033-039-045-046-055>057-062-063-290100-
EAST-CENTRAL ILLINOIS

CITY           SKY/WX    TMP DP  RH WIND       PRES   REMARKS
CHAMPAIGN      SUNNY     77  49  37 W13       29.80S
RANTOUL*       SUNNY     78  52  40 W14G20    29.79S
MATTOON        SUNNY     76  53  44 W16       29.81R
PARIS*         SUNNY     75  56  50 W15G23    29.81R
$$

ILZ079-100>102-290100-
SOUTHWEST ILLINOIS

CITY           SKY/WX    TMP DP  RH WIND       PRES   REMARKS
BELLEVILLE     SUNNY     77  57  49 NW9       29.88R
CAHOKIA*       MOSUNNY   78  53  41 W9        29.86S
SPARTA*        SUNNY     75  62  64 W6        29.89R
$$

ILZ064>066-069>071-074>076-080>082-084>086-088>090-092>094-290100-
SOUTH-CENTRAL ILLINOIS

CITY           SKY/WX    TMP DP  RH WIND       PRES   REMARKS
CARBONDALE     MOSUNNY   75  64  68 W5        29.87S
6HR MIN TEMP:  74; 6HR MAX TEMP:  78;

CAIRO*         SUNNY     74  68  82 SW5       29.88S
EFFINGHAM*     SUNNY     77  58  51 W12       29.84S
MT. VERNON       N/A     75  63  66 W7        29.86S
CENTRALIA*     SUNNY     78  58  51 W15       29.85S
SALEM*         PTSUNNY   78  58  50 W13       29.85S
METROPOLIS*    MOSUNNY   71  68  91 SW6       29.89R
$$

ILZ067-068-072-073-078-083-087-091-290100-
SOUTHEAST ILLINOIS

CITY           SKY/WX    TMP DP  RH WIND       PRES   REMARKS
LAWRENCEVILLE  SUNNY     75  64  68 W14       29.83R
FLORA*         SUNNY     76  65  68 SW9       29.84S
FAIRFIELD*     SUNNY     75  64  67 W5        29.84S
HARRISBURG*    PTSUNNY   76  64  67 W9        29.87S
ROBINSON*      MOSUNNY   74  64  72 W15G21    29.82S
CARMI*         MOSUNNY   74  64  69 W10       29.85S
$$

ABBREVIATIONS USED IN REMARKS
   TC - TEMPERATURE IN CELSIUS
  WCI - WIND CHILL INDEX
   HX - HEAT INDEX
  VSB - VISIBILITY
$$




USA.gov is the U.S. government's official web portal to all federal, state and local government web resources and services.